When you browse on this site, cookies collect data to enhance your experience and personalize the content and advertising you see.
Visit our Privacy Policy to learn more. By continuing to use the site, you agree to this use of cookies and data.
  • In Schweiz
  • Länderverzeichnis
  • Für 7 Tage
  • Wassertemperatur
  • Wetterkarte
  • Widgets
  • user-avatar
    Anmelden

    Stündliche Wetter Reding

    Heute, 28 Januar, Dienstag

    Zeit Temperatur Niederschläge Wind Luftdruck Luftfeuchtigkeit
    00:00 +4°C° 0 mm 4 m/S 739 mmHg 86%
    01:00 +3°C° 0.3 mm 6 m/S 739 mmHg 86%
    02:00 +3°C° 0.3 mm 7 m/S 739 mmHg 87%
    03:00 +1°C° 0.3 mm 8 m/S 739 mmHg 87%
    04:00 +2°C° 0 mm 7 m/S 739 mmHg 84%
    05:00 0°C° 0 mm 7 m/S 740 mmHg 81%
    06:00 -1°C° 0 mm 6 m/S 740 mmHg 84%
    07:00 -1°C° 0 mm 6 m/S 741 mmHg 82%
    08:00 -1°C° 0 mm 6 m/S 742 mmHg 80%
    09:00 -1°C° 0 mm 6 m/S 743 mmHg 78%
    10:00 +2°C° 0 mm 7 m/S 743 mmHg 75%
    11:00 +2°C° 0 mm 8 m/S 744 mmHg 72%
    12:00 +4°C° 0 mm 8 m/S 744 mmHg 71%
    13:00 +4°C° 0.1 mm 8 m/S 744 mmHg 72%
    14:00 +4°C° 0.1 mm 7 m/S 744 mmHg 72%
    15:00 +4°C° 0.1 mm 7 m/S 744 mmHg 72%
    16:00 +3°C° 0 mm 7 m/S 744 mmHg 75%
    17:00 +2°C° 0 mm 6 m/S 745 mmHg 79%
    18:00 +1°C° 0 mm 6 m/S 746 mmHg 83%
    19:00 +1°C° 0 mm 6 m/S 746 mmHg 82%
    20:00 +1°C° 0 mm 5 m/S 747 mmHg 81%
    21:00 0°C° 0 mm 5 m/S 747 mmHg 80%
    22:00 0°C° 0 mm 5 m/S 748 mmHg 81%
    23:00 0°C° 0 mm 5 m/S 748 mmHg 81%

    Morgen, 29 Januar, Mittwoch

    Zeit Temperatur Niederschläge Wind Luftdruck Luftfeuchtigkeit
    00:00 -1°C° 0 mm 6 m/S 749 mmHg 81%
    01:00 -1°C° 0 mm 6 m/S 749 mmHg 82%
    02:00 0°C° 0 mm 5 m/S 750 mmHg 82%
    03:00 0°C° 0 mm 5 m/S 750 mmHg 83%
    04:00 0°C° 0 mm 5 m/S 751 mmHg 83%
    05:00 0°C° 0 mm 5 m/S 751 mmHg 84%
    06:00 0°C° 0 mm 5 m/S 752 mmHg 85%
    07:00 0°C° 0 mm 5 m/S 752 mmHg 85%
    08:00 0°C° 0 mm 4 m/S 753 mmHg 85%
    09:00 +1°C° 0 mm 4 m/S 753 mmHg 85%
    10:00 +2°C° 0 mm 5 m/S 753 mmHg 81%
    11:00 +5°C° 0 mm 5 m/S 754 mmHg 77%
    12:00 +5°C° 0 mm 6 m/S 754 mmHg 73%
    13:00 +5°C° 0 mm 6 m/S 754 mmHg 74%
    14:00 +7°C° 0 mm 6 m/S 754 mmHg 75%
    15:00 +7°C° 0 mm 6 m/S 754 mmHg 76%
    16:00 +5°C° 0 mm 6 m/S 754 mmHg 80%
    17:00 +5°C° 0 mm 6 m/S 753 mmHg 83%
    18:00 +5°C° 0 mm 5 m/S 753 mmHg 87%
    19:00 +5°C° 0 mm 5 m/S 753 mmHg 88%
    20:00 +5°C° 0 mm 5 m/S 753 mmHg 90%
    21:00 +5°C° 0 mm 5 m/S 753 mmHg 91%
    22:00 +5°C° 0 mm 5 m/S 753 mmHg 92%
    23:00 +5°C° 0 mm 4 m/S 753 mmHg 93%

    übermorgen, 30 Januar, Donnerstag

    Zeit Temperatur Niederschläge Wind Luftdruck Luftfeuchtigkeit
    00:00 +5°C° 0 mm 4 m/S 753 mmHg 94%
    01:00 +5°C° 0 mm 3 m/S 753 mmHg 95%
    02:00 +5°C° 0 mm 3 m/S 752 mmHg 96%
    03:00 +4°C° 0 mm 3 m/S 752 mmHg 97%
    04:00 +5°C° 0 mm 3 m/S 751 mmHg 97%
    05:00 +7°C° 0 mm 3 m/S 751 mmHg 97%
    06:00 +7°C° 0 mm 3 m/S 750 mmHg 98%
    07:00 +7°C° 0 mm 3 m/S 750 mmHg 98%
    08:00 +8°C° 0 mm 3 m/S 749 mmHg 98%
    09:00 +8°C° 0 mm 3 m/S 749 mmHg 98%
    10:00 +9°C° 0 mm 3 m/S 749 mmHg 97%
    11:00 +10°C° 0 mm 4 m/S 749 mmHg 95%
    12:00 +10°C° 0 mm 4 m/S 748 mmHg 94%
    13:00 +11°C° 0 mm 4 m/S 748 mmHg 93%
    14:00 +10°C° 0 mm 5 m/S 748 mmHg 92%
    15:00 +12°C° 0 mm 5 m/S 748 mmHg 91%
    16:00 +10°C° 0 mm 5 m/S 748 mmHg 91%
    17:00 +10°C° 0 mm 6 m/S 748 mmHg 91%
    18:00 +9°C° 0 mm 6 m/S 748 mmHg 91%
    19:00 +10°C° 0 mm 6 m/S 749 mmHg 91%
    20:00 +10°C° 0 mm 6 m/S 749 mmHg 91%
    21:00 +10°C° 0 mm 5 m/S 750 mmHg 91%
    22:00 +10°C° 0 mm 6 m/S 750 mmHg 90%
    23:00 +9°C° 0 mm 6 m/S 751 mmHg 88%

    31 Januar, Freitag

    Zeit Temperatur Niederschläge Wind Luftdruck Luftfeuchtigkeit
    00:00 +9°C° 0 mm 6 m/S 751 mmHg 87%
    01:00 +9°C° 0 mm 6 m/S 752 mmHg 88%
    02:00 +9°C° 0 mm 5 m/S 752 mmHg 88%
    03:00 +9°C° 0 mm 5 m/S 752 mmHg 88%
    04:00 +9°C° 0 mm 5 m/S 752 mmHg 89%
    05:00 +9°C° 0 mm 5 m/S 752 mmHg 89%
    06:00 +9°C° 0 mm 5 m/S 752 mmHg 90%
    07:00 +9°C° 0 mm 5 m/S 752 mmHg 90%
    08:00 +9°C° 0 mm 6 m/S 751 mmHg 89%
    09:00 +9°C° 0 mm 6 m/S 751 mmHg 89%
    10:00 +10°C° 0 mm 6 m/S 751 mmHg 89%
    11:00 +10°C° 0 mm 7 m/S 751 mmHg 88%
    12:00 +11°C° 0 mm 7 m/S 751 mmHg 87%
    13:00 +11°C° 0 mm 7 m/S 751 mmHg 89%
    14:00 +11°C° 0 mm 7 m/S 750 mmHg 91%
    15:00 +11°C° 0 mm 7 m/S 750 mmHg 92%
    16:00 +11°C° 0 mm 7 m/S 750 mmHg 92%
    17:00 +11°C° 0 mm 7 m/S 750 mmHg 92%
    18:00 +11°C° 0 mm 6 m/S 749 mmHg 92%
    19:00 +11°C° 0 mm 6 m/S 749 mmHg 93%
    20:00 +11°C° 0 mm 6 m/S 749 mmHg 93%
    21:00 +11°C° 0 mm 6 m/S 749 mmHg 94%
    22:00 +11°C° 0.4 mm 6 m/S 749 mmHg 94%
    23:00 +11°C° 0.4 mm 6 m/S 748 mmHg 94%

    1 Februar, Samstag

    Zeit Temperatur Niederschläge Wind Luftdruck Luftfeuchtigkeit
    00:00 +11°C° 0.4 mm 6 m/S 748 mmHg 95%
    01:00 +10°C° 0.1 mm 5 m/S 747 mmHg 94%
    02:00 +10°C° 0.1 mm 5 m/S 747 mmHg 94%
    03:00 +11°C° 0.1 mm 4 m/S 747 mmHg 93%
    04:00 +10°C° 0 mm 4 m/S 746 mmHg 93%
    05:00 +10°C° 0 mm 4 m/S 746 mmHg 92%
    06:00 +8°C° 0 mm 4 m/S 746 mmHg 91%
    07:00 +8°C° 1 mm 5 m/S 746 mmHg 90%
    08:00 +6°C° 1 mm 7 m/S 746 mmHg 90%
    09:00 +6°C° 1 mm 8 m/S 747 mmHg 89%
    10:00 +6°C° 0.3 mm 9 m/S 748 mmHg 82%
    11:00 +6°C° 0.3 mm 9 m/S 749 mmHg 75%
    12:00 +6°C° 0.3 mm 10 m/S 750 mmHg 68%
    13:00 +6°C° 0 mm 10 m/S 751 mmHg 68%
    14:00 +6°C° 0 mm 10 m/S 752 mmHg 68%
    15:00 +6°C° 0 mm 10 m/S 753 mmHg 68%
    16:00 +5°C° 0 mm 9 m/S 754 mmHg 70%
    17:00 +5°C° 0 mm 8 m/S 755 mmHg 73%
    18:00 +4°C° 0 mm 7 m/S 755 mmHg 75%
    19:00 +4°C° 0 mm 6 m/S 756 mmHg 78%
    20:00 +3°C° 0 mm 5 m/S 756 mmHg 80%
    21:00 +3°C° 0 mm 5 m/S 757 mmHg 82%
    22:00 +3°C° 0 mm 5 m/S 757 mmHg 84%
    23:00 +3°C° 0 mm 5 m/S 757 mmHg 86%

    2 Februar, Sonntag

    Zeit Temperatur Niederschläge Wind Luftdruck Luftfeuchtigkeit
    00:00 +3°C° 0 mm 5 m/S 758 mmHg 87%
    01:00 +4°C° 0 mm 4 m/S 757 mmHg 87%
    02:00 +5°C° 0 mm 4 m/S 756 mmHg 87%
    03:00 +6°C° 0 mm 4 m/S 756 mmHg 87%
    04:00 +6°C° 1.6 mm 5 m/S 754 mmHg 90%
    05:00 +6°C° 1.6 mm 7 m/S 753 mmHg 92%
    06:00 +7°C° 1.6 mm 9 m/S 752 mmHg 94%
    07:00 +9°C° 0.5 mm 8 m/S 752 mmHg 93%
    08:00 +10°C° 0.5 mm 8 m/S 752 mmHg 92%
    09:00 +12°C° 0.5 mm 8 m/S 751 mmHg 91%
    10:00 +12°C° 0 mm 8 m/S 752 mmHg 89%
    11:00 +12°C° 0 mm 8 m/S 753 mmHg 87%
    12:00 +12°C° 0 mm 7 m/S 753 mmHg 85%
    13:00 +12°C° 0 mm 7 m/S 754 mmHg 85%
    14:00 +13°C° 0 mm 6 m/S 754 mmHg 85%
    15:00 +13°C° 0 mm 5 m/S 754 mmHg 85%
    16:00 +12°C° 0.1 mm 4 m/S 754 mmHg 88%
    17:00 +11°C° 0.1 mm 4 m/S 754 mmHg 92%
    18:00 +11°C° 0.1 mm 3 m/S 755 mmHg 95%
    19:00 +11°C° 0.2 mm 3 m/S 755 mmHg 96%
    20:00 +11°C° 0.2 mm 4 m/S 755 mmHg 96%
    21:00 +11°C° 0.2 mm 4 m/S 754 mmHg 96%
    22:00 +11°C° 0.3 mm 4 m/S 754 mmHg 96%
    23:00 +10°C° 0.3 mm 5 m/S 754 mmHg 95%
    Mehr zeigen